Wind_Speed
11 11 11 11 11 12 12 13 13 14 14 14 15 15 16 16 15 16 16 16 15 15 15 15 15 15 14 14 14 14 14 13 13 12 10 10 11 11 12 12 12 12 13
12 12 12 12 13 13 13 13 13 14 14 14 15 15 15 15 15 16 16 16 16 16 15 15 15 15 15 14 13 13 13 13 12 11 9 9 10 11 11 12 12 12 13
13 14 13 14 14 14 14 14 14 14 15 15 14 14 15 15 15 15 15 16 16 15 15 15 15 14 14 14 13 13 13 12 11 11 10 10 10 10 11 12 12 13 13
14 15 14 14 14 14 14 15 15 14 15 15 15 15 15 15 15 15 16 15 16 16 16 15 14 14 14 14 13 13 12 12 12 12 11 11 11 11 11 11 12 13 13
15 15 15 15 15 15 15 15 16 15 15 15 15 15 15 15 15 16 15 15 15 16 16 16 15 14 14 13 13 13 13 13 13 13 12 12 12 12 12 12 12 12 13
16 15 15 15 15 15 15 16 16 16 16 16 16 16 16 15 15 16 15 15 15 16 16 16 15 14 13 13 13 13 13 13 13 13 12 12 13 13 13 13 13 12 13
16 16 16 16 16 16 16 17 17 17 16 16 16 15 15 16 15 15 15 15 14 15 15 15 15 14 14 14 13 13 13 13 12 12 13 13 13 13 13 13 13 13 13
16 16 16 16 16 16 17 17 16 16 15 15 15 15 15 15 15 15 15 14 15 15 15 15 15 14 15 14 14 14 13 14 14 14 13 13 13 13 13 13 13 13 14
16 16 17 17 17 17 17 16 16 16 15 16 15 15 15 15 15 15 15 15 15 15 15 16 15 16 15 15 15 14 14 14 14 14 14 14 14 13 13 13 13 13 13
17 17 17 17 17 17 17 17 16 16 16 16 16 16 16 16 15 15 15 15 15 15 15 15 16 16 16 16 15 15 15 15 14 14 14 14 14 13 13 13 13 13 13
18 18 18 18 18 19 18 18 17 17 17 17 17 17 17 16 16 15 15 15 14 14 14 14 15 16 17 17 16 15 15 15 14 14 14 14 13 13 13 13 13 13 14
18 18 18 19 19 19 18 18 18 18 18 18 18 17 17 17 17 16 16 15 14 15 14 14 15 15 15 15 14 15 15 15 14 15 15 14 14 14 14 14 14 14 14
19 19 19 20 20 20 19 19 19 19 18 18 17 17 17 17 17 16 16 16 16 16 15 15 15 15 15 14 14 14 15 15 15 15 15 15 15 15 15 15 15 15 14
19 20 20 21 21 20 20 19 19 19 19 18 18 18 18 18 18 17 16 16 16 16 15 15 16 16 15 15 14 15 15 15 15 15 15 15 15 15 15 15 16 16 16
20 21 21 21 21 20 20 20 20 19 19 19 19 19 19 18 18 17 17 17 17 17 16 16 17 17 16 16 16 16 16 16 16 16 15 16 16 16 17 17 17 17 16
21 21 22 22 21 21 21 21 20 20 20 20 20 19 20 19 19 19 18 18 18 18 17 17 17 18 17 17 17 17 17 18 18 17 17 17 17 18 18 18 17 17 17
23 23 23 22 22 21 21 22 22 22 21 21 21 20 20 20 20 20 20 20 19 19 18 17 17 17 17 18 18 18 18 19 19 18 18 18 19 19 19 18 18 18 18
23 23 23 23 22 22 22 22 22 23 22 22 21 21 21 20 21 21 21 20 20 20 19 19 19 19 19 20 20 20 21 21 21 20 20 20 20 20 20 20 20 19 20
24 24 24 23 23 24 23 23 23 23 23 22 22 22 21 21 21 21 22 21 21 22 21 21 21 21 21 21 21 22 23 22 22 22 22 22 22 21 21 21 22 22 21
25 25 25 25 24 24 23 23 23 23 23 23 22 22 22 21 21 21 22 22 23 23 23 23 22 23 23 23 23 23 24 23 23 23 24 23 23 23 23 23 23 23 23
27 27 26 25 25 25 24 24 23 23 23 23 23 23 22 22 22 21 22 22 23 24 24 23 24 24 25 25 25 25 26 25 24 24 24 24 24 25 24 25 25 24 24
26 26 26 26 25 25 25 25 24 24 24 23 22 22 23 23 22 21 21 22 22 23 24 24 24 24 25 26 26 26 27 25 25 25 26 26 26 26 26 27 26 26 26
26 26 26 26 26 26 26 26 26 25 25 24 24 23 24 24 23 23 23 23 23 24 24 24 25 25 26 27 27 28 28 27 26 27 27 28 28 27 27 28 28 27 27
26 26 26 27 27 27 27 27 27 26 26 25 25 25 25 25 25 25 25 25 25 25 25 25 25 26 27 28 28 29 29 29 28 28 29 29 29 29 29 29 29 28 28
27 27 27 27 27 27 27 28 27 27 27 26 26 27 27 27 27 27 27 27 27 27 27 27 26 27 28 28 29 29 30 30 29 29 30 30 29 30 30 29 29 29 29
28 28 28 28 27 27 28 28 28 28 28 28 28 29 29 29 29 29 28 28 27 28 28 28 28 27 28 30 30 30 30 30 30 30 30 31 31 31 31 31 31 30 30
Wind_Direction
286 288 292 293 291 287 285 283 282 280 278 278 277 274 272 270 273 272 272 273 274 274 273 273 274 271 270 271 271 270 274 281 283 283 275 258 251 253 255 254 256 258 260
288 292 292 293 294 292 290 287 286 284 284 282 281 279 277 275 274 274 274 273 273 272 272 273 273 272 270 270 270 271 273 277 280 277 268 259 258 259 257 256 257 259 260
289 290 294 293 293 291 290 289 290 287 285 283 282 280 279 276 274 274 273 271 271 270 272 271 273 272 271 271 271 270 271 272 274 274 267 263 260 260 261 262 260 259 259
288 289 293 293 293 292 292 292 292 290 286 283 282 280 278 277 277 274 272 270 269 268 268 269 268 270 270 271 271 271 271 270 271 271 268 265 262 260 262 266 264 260 259
289 289 291 291 290 291 291 291 290 290 289 284 280 278 277 278 277 275 272 269 267 268 267 266 267 269 267 268 271 271 271 270 270 268 265 264 262 261 263 266 267 264 261
290 290 290 292 292 292 291 291 292 290 290 288 286 283 280 278 279 276 272 269 268 265 265 266 266 266 264 266 270 271 270 270 270 267 266 264 264 265 264 265 266 266 262
293 293 292 292 293 292 291 291 292 293 292 291 289 287 284 282 282 280 275 270 268 265 265 266 266 262 262 265 268 268 267 268 269 269 269 267 267 267 265 264 266 264 260
296 294 295 294 293 293 292 291 291 291 290 291 290 289 286 283 281 282 279 276 270 265 264 264 263 261 259 260 263 264 266 267 268 269 269 268 268 269 267 266 265 262 260
294 293 294 293 292 291 291 289 288 287 286 288 290 290 287 283 279 279 279 276 272 267 264 262 261 260 261 260 261 263 266 268 269 269 269 267 267 269 267 267 267 262 259
294 294 294 294 292 291 290 288 286 287 286 287 289 288 286 284 280 278 276 275 272 269 264 265 265 262 260 263 262 261 261 266 269 269 269 267 265 267 268 268 266 261 259
293 292 294 294 292 290 289 288 286 287 286 285 286 287 285 284 281 278 276 274 273 270 267 266 263 262 260 260 260 259 260 264 269 269 267 267 265 265 266 267 265 262 261
294 294 293 294 293 291 289 288 287 286 285 285 284 285 285 282 280 278 277 273 270 269 266 264 264 263 262 259 258 260 261 262 265 268 267 265 264 263 265 265 263 261 262
293 293 293 293 292 291 290 287 287 286 284 283 282 283 284 281 280 278 275 274 272 267 264 262 262 260 258 258 258 259 261 262 262 265 266 264 265 265 267 267 264 263 262
293 293 292 293 291 291 289 287 287 287 284 282 281 281 282 280 279 277 276 272 271 267 264 263 262 260 258 256 256 258 260 262 263 265 264 264 264 267 268 268 266 264 262
293 294 292 291 290 289 289 288 287 285 284 283 282 281 281 279 279 276 274 273 271 270 265 263 260 262 259 258 258 257 257 261 262 262 263 264 265 267 268 267 266 263 262
294 294 293 291 289 287 286 287 287 286 285 284 283 282 280 277 276 274 273 273 271 270 267 263 262 262 257 255 256 256 257 259 259 259 260 263 266 267 267 265 264 265 263
293 296 293 292 290 288 287 286 284 285 284 284 282 281 279 276 274 273 273 273 271 269 267 265 264 261 256 256 257 258 259 260 258 259 259 262 265 266 266 265 264 265 264
292 295 294 292 290 289 288 287 285 284 283 283 282 280 278 276 274 273 274 273 271 267 266 265 262 259 257 257 260 260 261 261 259 259 259 262 264 264 265 264 264 265 266
291 293 292 292 292 291 289 288 287 285 285 284 282 280 277 276 275 274 273 271 270 267 266 265 262 259 258 258 260 262 263 263 260 258 259 262 262 262 263 264 264 264 266
291 292 291 291 292 292 290 288 288 286 284 283 282 279 276 275 275 275 273 272 270 268 265 264 262 260 259 260 262 264 264 264 260 259 260 263 263 261 263 265 265 264 265
290 291 290 289 289 289 289 288 287 286 283 281 279 278 276 275 275 275 275 274 272 268 266 265 263 262 261 260 261 264 266 264 263 262 261 264 263 262 262 263 264 264 266
291 289 289 288 287 287 288 289 287 285 282 281 280 277 277 276 275 275 276 276 273 271 269 267 265 264 264 263 261 262 264 263 263 262 265 265 264 264 263 263 263 264 266
291 289 289 288 287 285 286 286 286 283 280 277 277 277 276 275 273 274 274 273 274 274 271 270 268 266 266 266 262 261 262 263 263 264 265 265 265 264 265 265 264 265 266
290 290 289 288 287 286 286 286 284 282 279 276 275 275 275 275 275 275 273 271 272 272 271 271 271 269 267 267 266 263 261 262 262 263 264 265 265 265 265 265 263 263 263
290 290 289 287 287 286 284 284 282 282 279 278 276 275 274 275 275 276 275 273 272 272 272 272 272 271 270 268 266 265 263 262 262 263 264 265 266 265 264 265 264 264 262
289 289 288 287 286 284 283 282 282 283 281 279 277 277 276 276 276 277 275 274 273 273 273 272 272 272 270 268 265 263 263 263 264 264 264 265 265 265 264 265 266 265 263
Height
5845 5845 5845 5844 5844 5843 5843 5842 5842 5842 5841 5841 5841 5841 5841 5841 5841 5841 5841 5841 5842 5842 5842 5842 5842 5842 5842 5843 5843 5843 5843 5843 5842 5841 5840 5840 5842 5844 5846 5847 5849 5850 5851
5843 5843 5842 5842 5841 5840 5840 5839 5839 5838 5838 5838 5837 5837 5837 5837 5837 5838 5838 5838 5838 5838 5838 5838 5839 5839 5839 5840 5840 5840 5840 5840 5840 5840 5839 5839 5840 5842 5844 5845 5846 5847 5848
5840 5840 5839 5839 5838 5837 5837 5836 5836 5835 5835 5834 5834 5834 5833 5833 5833 5834 5834 5834 5834 5834 5835 5835 5835 5836 5836 5837 5837 5837 5838 5838 5838 5838 5838 5838 5839 5841 5842 5843 5843 5844 5845
5838 5837 5836 5836 5835 5834 5834 5833 5832 5832 5831 5830 5830 5830 5830 5829 5830 5830 5830 5830 5831 5831 5831 5831 5831 5832 5833 5833 5834 5834 5835 5835 5836 5836 5836 5837 5838 5839 5839 5840 5841 5841 5842
5834 5834 5833 5833 5832 5831 5830 5829 5829 5828 5827 5826 5826 5826 5826 5826 5826 5826 5826 5826 5827 5827 5827 5828 5828 5829 5829 5830 5831 5831 5832 5832 5833 5833 5834 5834 5835 5836 5837 5837 5838 5838 5839
5831 5830 5830 5829 5828 5828 5827 5826 5825 5824 5823 5822 5822 5822 5822 5822 5822 5822 5822 5822 5822 5823 5823 5824 5825 5825 5826 5827 5827 5828 5829 5829 5830 5830 5831 5831 5832 5833 5833 5834 5835 5835 5836
5827 5827 5826 5825 5824 5824 5823 5822 5820 5820 5819 5818 5818 5818 5818 5818 5818 5818 5817 5817 5818 5819 5819 5820 5821 5822 5823 5824 5824 5825 5825 5826 5826 5827 5828 5828 5829 5829 5830 5831 5831 5832 5832
5824 5823 5822 5821 5820 5820 5819 5817 5816 5816 5815 5814 5814 5814 5814 5814 5814 5813 5813 5813 5814 5814 5815 5816 5817 5818 5819 5820 5821 5821 5822 5822 5823 5823 5824 5825 5825 5826 5826 5827 5828 5828 5829
5820 5819 5819 5818 5817 5816 5815 5813 5812 5812 5811 5811 5810 5810 5809 5809 5809 5809 5809 5809 5809 5810 5811 5811 5812 5813 5815 5816 5816 5817 5818 5819 5819 5820 5820 5821 5822 5822 5823 5823 5824 5825 5825
5816 5815 5814 5813 5812 5811 5810 5810 5809 5808 5807 5807 5806 5805 5805 5805 5805 5805 5805 5804 5804 5805 5806 5807 5807 5809 5810 5811 5812 5813 5814 5814 5815 5816 5817 5817 5818 5819 5820 5820 5821 5821 5822
5812 5811 5810 5809 5808 5807 5806 5805 5804 5804 5803 5802 5801 5801 5800 5800 5800 5800 5800 5800 5800 5800 5801 5802 5802 5804 5805 5806 5808 5809 5809 5810 5811 5812 5813 5814 5814 5815 5816 5816 5817 5818 5818
5808 5807 5806 5805 5804 5802 5801 5800 5800 5799 5798 5797 5797 5796 5796 5795 5795 5795 5795 5795 5795 5796 5796 5797 5798 5799 5800 5801 5803 5804 5805 5806 5807 5808 5809 5810 5811 5811 5812 5813 5813 5814 5814
5804 5803 5802 5800 5799 5798 5797 5796 5795 5794 5794 5793 5792 5791 5791 5790 5790 5790 5790 5790 5790 5791 5791 5792 5793 5794 5795 5797 5798 5799 5801 5801 5802 5803 5804 5805 5806 5807 5808 5808 5809 5810 5810
5800 5798 5797 5795 5794 5793 5792 5791 5790 5789 5788 5788 5787 5787 5786 5785 5785 5785 5785 5785 5785 5786 5786 5787 5788 5789 5790 5792 5793 5795 5796 5796 5798 5799 5800 5801 5801 5802 5803 5804 5804 5805 5806
5795 5793 5792 5790 5789 5788 5787 5786 5785 5784 5783 5782 5782 5781 5781 5780 5780 5779 5779 5779 5780 5780 5781 5782 5783 5784 5785 5787 5788 5790 5791 5791 5793 5794 5795 5796 5797 5798 5798 5799 5799 5800 5801
5789 5788 5786 5785 5784 5782 5781 5780 5779 5778 5778 5777 5776 5775 5775 5774 5774 5774 5774 5774 5774 5775 5775 5776 5777 5778 5780 5781 5783 5784 5786 5787 5788 5789 5790 5791 5792 5792 5793 5793 5794 5795 5796
5784 5782 5781 5779 5778 5777 5776 5775 5773 5772 5772 5771 5770 5769 5769 5769 5768 5768 5768 5768 5769 5769 5769 5771 5772 5773 5775 5776 5777 5778 5780 5781 5782 5784 5785 5786 5786 5787 5787 5788 5789 5790 5790
5778 5777 5775 5773 5772 5771 5770 5768 5767 5766 5765 5764 5764 5763 5763 5762 5762 5762 5762 5762 5763 5763 5764 5765 5766 5767 5769 5771 5772 5773 5774 5775 5776 5777 5778 5779 5780 5781 5782 5782 5783 5784 5784
5772 5771 5769 5767 5766 5764 5763 5762 5761 5760 5759 5758 5757 5757 5756 5756 5756 5756 5756 5756 5757 5757 5757 5759 5760 5761 5763 5764 5766 5767 5767 5768 5769 5770 5772 5772 5773 5774 5775 5776 5777 5777 5778
5766 5764 5762 5761 5759 5758 5757 5756 5755 5753 5752 5752 5751 5750 5750 5750 5750 5750 5749 5749 5749 5750 5750 5752 5753 5755 5756 5757 5759 5759 5760 5761 5762 5763 5764 5765 5766 5767 5768 5769 5770 5771 5771
5759 5757 5755 5754 5753 5751 5750 5749 5748 5747 5746 5745 5744 5744 5744 5743 5743 5743 5743 5742 5742 5742 5743 5745 5746 5747 5749 5750 5751 5752 5753 5754 5755 5756 5757 5758 5759 5760 5761 5762 5763 5763 5764
5751 5750 5748 5747 5745 5744 5742 5741 5740 5739 5739 5738 5738 5737 5737 5737 5737 5736 5736 5735 5735 5735 5736 5737 5739 5740 5741 5742 5744 5745 5745 5746 5748 5749 5749 5751 5751 5752 5753 5754 5755 5756 5756
5744 5742 5741 5739 5738 5736 5735 5734 5733 5732 5731 5731 5731 5730 5730 5730 5730 5730 5730 5729 5729 5728 5729 5730 5732 5733 5734 5734 5736 5736 5737 5738 5740 5741 5741 5742 5743 5744 5745 5746 5746 5747 5748
5737 5735 5733 5732 5730 5729 5727 5726 5725 5724 5723 5723 5723 5723 5723 5723 5723 5723 5722 5722 5722 5722 5722 5723 5724 5725 5725 5725 5727 5728 5729 5730 5731 5732 5733 5734 5734 5735 5736 5737 5738 5738 5739
5730 5728 5726 5724 5722 5721 5720 5718 5717 5716 5715 5715 5715 5715 5715 5715 5715 5715 5715 5715 5715 5715 5715 5715 5716 5716 5716 5717 5718 5719 5720 5721 5722 5723 5723 5725 5726 5726 5727 5728 5729 5729 5730
5721 5719 5718 5716 5714 5713 5712 5710 5709 5708 5708 5707 5707 5707 5707 5706 5706 5706 5706 5706 5707 5707 5707 5707 5708 5708 5708 5708 5708 5709 5710 5711 5713 5714 5714 5715 5716 5717 5718 5719 5719 5720 5721